カタログに戻る

CZ-6A DEB

運用中SSO
NORAD 54978·DEBRIS·🇨🇳 China

打ち上げ Nov 11, 2022 から Taiyuan Satellite Launch Center

Loading…

次のパス (今後24時間)

TLE

最新Source: Space-Track

元期: Sep 14, 2026, 11:23 UTC

1 54978U 22151TT  26257.47452545  .00001454  00000-0  72667-3 0  9997
2 54978  98.8333 265.3909 0043549  65.4429 295.1276 14.17844007197340

AllMySatでCZ-6A DEBをリアルタイム追跡

Download on the App Store